GFSGBSN_prec_precacc12_150.txt.gz
Total_Precipitation_Accumulation
0.28 0.36 0.25 0.15 0.11 0.04 0.02 0.00 0.00 0.00 0.00 0.00 0.00 0.00 0.00 0.00 0.00 0.00 0.00 0.00 0.00 0.00 0.00 0.00 0.00 0.00 0.00 0.00 0.00 0.00 0.00 0.00 0.00 0.00 0.00 0.00 0.00 0.00 0.00 0.00 0.00 0.00 0.00 0.00 0.00 0.00 0.00
0.10 0.16 0.31 0.36 0.38 0.30 0.18 0.07 0.04 0.01 0.01 0.00 0.00 0.00 0.00 0.00 0.00 0.00 0.00 0.00 0.00 0.00 0.00 0.00 0.00 0.00 0.00 0.00 0.00 0.00 0.00 0.00 0.00 0.00 0.00 0.00 0.00 0.00 0.00 0.00 0.00 0.00 0.00 0.00 0.00 0.00 0.00
0.18 0.16 0.15 0.16 0.26 0.35 0.45 0.44 0.35 0.21 0.12 0.05 0.03 0.02 0.01 0.01 0.00 0.00 0.00 0.00 0.00 0.00 0.00 0.00 0.00 0.00 0.00 0.00 0.00 0.00 0.00 0.00 0.00 0.00 0.00 0.00 0.00 0.00 0.00 0.00 0.00 0.00 0.00 0.00 0.00 0.00 0.00
0.21 0.29 0.29 0.23 0.20 0.21 0.23 0.29 0.37 0.47 0.44 0.30 0.16 0.09 0.05 0.04 0.03 0.02 0.01 0.00 0.00 0.00 0.00 0.00 0.00 0.00 0.00 0.00 0.00 0.00 0.00 0.00 0.00 0.00 0.00 0.00 0.00 0.00 0.00 0.00 0.00 0.00 0.00 0.00 0.00 0.00 0.00
0.04 0.09 0.22 0.31 0.31 0.27 0.29 0.27 0.28 0.32 0.37 0.44 0.44 0.36 0.26 0.19 0.12 0.07 0.03 0.02 0.01 0.01 0.00 0.00 0.00 0.00 0.00 0.00 0.00 0.00 0.00 0.00 0.00 0.00 0.00 0.00 0.00 0.00 0.00 0.00 0.00 0.00 0.00 0.00 0.00 0.00 0.00
0.02 0.03 0.04 0.09 0.19 0.28 0.31 0.30 0.30 0.29 0.31 0.35 0.41 0.39 0.34 0.30 0.25 0.18 0.10 0.06 0.04 0.01 0.00 0.00 0.00 0.00 0.00 0.00 0.00 0.00 0.00 0.00 0.00 0.00 0.00 0.00 0.00 0.00 0.00 0.00 0.00 0.00 0.00 0.00 0.00 0.00 0.00
0.02 0.02 0.04 0.05 0.05 0.06 0.14 0.23 0.25 0.21 0.21 0.23 0.25 0.30 0.32 0.32 0.31 0.32 0.27 0.17 0.08 0.02 0.00 0.00 0.00 0.00 0.00 0.00 0.00 0.00 0.00 0.00 0.00 0.00 0.00 0.00 0.00 0.00 0.00 0.00 0.00 0.00 0.00 0.00 0.00 0.00 0.00
0.02 0.01 0.01 0.02 0.03 0.05 0.05 0.05 0.07 0.12 0.18 0.20 0.20 0.21 0.22 0.24 0.26 0.27 0.22 0.13 0.12 0.05 0.02 0.00 0.00 0.00 0.00 0.00 0.00 0.00 0.00 0.00 0.00 0.00 0.00 0.00 0.00 0.00 0.00 0.00 0.00 0.00 0.00 0.00 0.00 0.00 0.00
0.01 0.01 0.01 0.02 0.02 0.02 0.03 0.04 0.06 0.05 0.04 0.08 0.16 0.26 0.31 0.28 0.27 0.26 0.25 0.20 0.12 0.10 0.09 0.01 0.00 0.00 0.00 0.00 0.00 0.00 0.00 0.00 0.00 0.00 0.00 0.00 0.00 0.00 0.00 0.00 0.00 0.00 0.00 0.00 0.00 0.00 0.00
0.01 0.01 0.01 0.01 0.01 0.01 0.01 0.02 0.02 0.04 0.04 0.04 0.05 0.17 0.31 0.32 0.26 0.20 0.25 0.16 0.19 0.21 0.16 0.01 0.00 0.00 0.00 0.00 0.00 0.00 0.00 0.00 0.00 0.00 0.00 0.00 0.00 0.00 0.00 0.00 0.00 0.00 0.00 0.00 0.00 0.00 0.00
0.01 0.01 0.01 0.01 0.01 0.01 0.01 0.01 0.01 0.02 0.03 0.03 0.03 0.03 0.16 0.16 0.08 0.06 0.06 0.09 0.32 0.22 0.31 0.00 0.00 0.00 0.00 0.00 0.00 0.00 0.00 0.00 0.00 0.00 0.00 0.00 0.00 0.00 0.00 0.00 0.00 0.00 0.00 0.00 0.00 0.00 0.00
0.01 0.01 0.01 0.01 0.02 0.01 0.01 0.01 0.01 0.02 0.02 0.02 0.02 0.02 0.08 0.13 0.06 0.06 0.14 0.21 0.22 0.37 0.29 0.00 0.00 0.00 0.00 0.00 0.00 0.00 0.00 0.00 0.00 0.00 0.00 0.00 0.00 0.00 0.00 0.00 0.00 0.00 0.00 0.00 0.00 0.00 0.00
0.01 0.01 0.01 0.02 0.02 0.02 0.02 0.02 0.02 0.01 0.02 0.02 0.02 0.02 0.05 0.13 0.04 0.05 0.33 0.28 0.30 0.24 0.04 0.00 0.00 0.00 0.00 0.00 0.00 0.00 0.00 0.00 0.00 0.01 0.00 0.00 0.00 0.00 0.00 0.00 0.00 0.00 0.00 0.00 0.00 0.00 0.00
0.00 0.00 0.01 0.01 0.02 0.02 0.03 0.03 0.03 0.02 0.02 0.03 0.03 0.03 0.02 0.04 0.10 0.19 0.68 0.70 0.40 0.03 0.00 0.00 0.00 0.00 0.00 0.00 0.00 0.00 0.01 0.00 0.01 0.01 0.01 0.01 0.00 0.00 0.00 0.00 0.00 0.00 0.00 0.00 0.00 0.00 0.00
0.00 0.00 0.00 0.00 0.01 0.02 0.02 0.03 0.04 0.03 0.03 0.03 0.07 0.07 0.03 0.01 0.03 0.22 0.62 0.86 0.24 0.00 0.00 0.00 0.01 0.00 0.00 0.00 0.00 0.00 0.01 0.01 0.00 0.00 0.03 0.05 0.01 0.00 0.00 0.00 0.00 0.00 0.00 0.00 0.00 0.00 0.00
0.01 0.01 0.01 0.00 0.01 0.02 0.04 0.05 0.05 0.06 0.04 0.06 0.11 0.12 0.01 0.01 0.07 0.31 0.64 0.55 0.06 0.00 0.00 0.00 0.02 0.00 0.00 0.00 0.00 0.00 0.00 0.00 0.00 0.00 0.00 0.01 0.03 0.00 0.00 0.00 0.00 0.00 0.00 0.00 0.01 0.01 0.00
0.03 0.02 0.02 0.02 0.02 0.03 0.03 0.06 0.12 0.11 0.10 0.14 0.33 0.42 0.05 0.02 0.19 0.47 0.66 0.35 0.01 0.00 0.00 0.00 0.00 0.00 0.00 0.00 0.00 0.00 0.00 0.00 0.00 0.00 0.00 0.00 0.04 0.02 0.00 0.00 0.00 0.00 0.00 0.00 0.00 0.00 0.00
0.02 0.02 0.02 0.02 0.01 0.03 0.03 0.03 0.10 0.21 0.23 0.40 0.71 0.67 0.11 0.05 0.28 0.33 0.34 0.04 0.00 0.00 0.00 0.00 0.00 0.00 0.00 0.00 0.00 0.00 0.00 0.00 0.00 0.00 0.00 0.00 0.00 0.00 0.00 0.00 0.00 0.00 0.00 0.00 0.02 0.01 0.00
0.02 0.02 0.02 0.01 0.01 0.02 0.03 0.04 0.06 0.19 0.39 0.74 1.01 0.64 0.32 0.28 0.34 0.26 0.10 0.00 0.00 0.00 0.00 0.00 0.00 0.00 0.00 0.00 0.00 0.00 0.00 0.00 0.00 0.00 0.00 0.00 0.06 0.03 0.01 0.00 0.00 0.00 0.00 0.00 0.00 0.00 0.00
0.03 0.03 0.02 0.01 0.02 0.02 0.02 0.04 0.06 0.11 0.46 0.76 1.20 0.79 0.41 0.67 0.41 0.11 0.03 0.00 0.00 0.00 0.00 0.00 0.00 0.00 0.00 0.00 0.00 0.00 0.00 0.00 0.00 0.00 0.00 0.00 0.01 0.06 0.03 0.01 0.00 0.00 0.00 0.00 0.00 0.00 0.00
0.03 0.03 0.03 0.03 0.03 0.03 0.02 0.02 0.05 0.12 0.27 1.11 1.61 1.00 0.42 0.55 0.53 0.24 0.05 0.02 0.02 0.01 0.00 0.01 0.02 0.00 0.00 0.00 0.01 0.01 0.00 0.00 0.00 0.00 0.00 0.00 0.00 0.00 0.01 0.01 0.00 0.00 0.00 0.00 0.00 0.00 0.01
0.04 0.03 0.05 0.07 0.04 0.04 0.04 0.07 0.05 0.08 0.27 1.02 1.71 0.84 0.39 0.24 0.13 0.17 0.13 0.11 0.04 0.00 0.01 0.01 0.03 0.00 0.00 0.00 0.02 0.06 0.10 0.04 0.02 0.01 0.00 0.00 0.00 0.00 0.00 0.00 0.00 0.00 0.00 0.00 0.00 0.00 0.00
0.07 0.06 0.04 0.08 0.10 0.04 0.06 0.12 0.15 0.09 0.31 1.19 1.52 0.61 0.64 0.41 0.20 0.19 0.21 0.07 0.01 0.04 0.03 0.01 0.02 0.05 0.08 0.05 0.09 0.09 0.07 0.07 0.06 0.03 0.04 0.02 0.01 0.01 0.03 0.00 0.02 0.06 0.00 0.00 0.00 0.00 0.00
0.13 0.11 0.08 0.07 0.06 0.08 0.08 0.10 0.21 0.23 0.26 0.73 0.79 0.59 0.46 0.48 0.36 0.34 0.14 0.02 0.01 0.03 0.09 0.07 0.06 0.08 0.06 0.08 0.14 0.16 0.13 0.11 0.08 0.04 0.04 0.04 0.02 0.05 0.03 0.03 0.14 0.04 0.00 0.00 0.00 0.00 0.00
0.12 0.12 0.13 0.14 0.12 0.11 0.23 0.14 0.16 0.31 0.39 0.42 0.35 0.38 0.70 0.43 0.24 0.27 0.21 0.16 0.07 0.05 0.11 0.14 0.18 0.24 0.15 0.21 0.29 0.36 0.37 0.29 0.10 0.05 0.06 0.03 0.04 0.11 0.13 0.09 0.03 0.00 0.00 0.00 0.00 0.00 0.00
0.10 0.09 0.10 0.13 0.15 0.13 0.22 0.36 0.17 0.37 0.48 0.43 0.28 0.27 0.42 0.47 0.18 0.17 0.18 0.12 0.14 0.14 0.10 0.10 0.26 0.42 0.52 0.49 0.34 0.25 0.21 0.15 0.10 0.04 0.02 0.05 0.07 0.13 0.12 0.10 0.05 0.00 0.00 0.00 0.00 0.00 0.00
0.09 0.08 0.08 0.10 0.12 0.15 0.18 0.40 0.29 0.34 0.60 0.52 0.33 0.21 0.50 0.46 0.10 0.14 0.32 0.19 0.06 0.08 0.12 0.11 0.18 0.37 0.48 0.69 0.65 0.43 0.18 0.04 0.04 0.02 0.02 0.08 0.15 0.16 0.09 0.09 0.01 0.00 0.00 0.00 0.00 0.00 0.00
0.09 0.08 0.08 0.08 0.09 0.14 0.18 0.29 0.38 0.37 0.69 0.45 0.45 0.17 0.25 0.35 0.14 0.11 0.24 0.25 0.18 0.11 0.10 0.09 0.20 0.21 0.48 0.41 0.46 0.48 0.31 0.12 0.05 0.01 0.02 0.03 0.10 0.14 0.13 0.17 0.03 0.00 0.00 0.00 0.00 0.00 0.00
0.08 0.08 0.08 0.07 0.07 0.10 0.16 0.23 0.42 0.51 0.45 0.49 0.33 0.29 0.16 0.25 0.26 0.18 0.31 0.23 0.18 0.18 0.11 0.10 0.11 0.06 0.09 0.18 0.14 0.10 0.10 0.18 0.11 0.03 0.01 0.03 0.01 0.02 0.03 0.04 0.00 0.00 0.00 0.00 0.00 0.00 0.00

GFSGBSN_prec_precacc12_153.txt.gz
Total_Precipitation_Accumulation
0.17 0.18 0.16 0.11 0.09 0.05 0.03 0.01 0.00 0.00 0.00 0.00 0.00 0.00 0.00 0.00 0.00 0.00 0.00 0.00 0.00 0.00 0.00 0.00 0.00 0.00 0.00 0.00 0.00 0.00 0.00 0.00 0.00 0.00 0.00 0.00 0.00 0.00 0.00 0.00 0.00 0.00 0.00 0.00 0.00 0.00 0.00
0.08 0.11 0.17 0.26 0.27 0.21 0.14 0.06 0.04 0.02 0.03 0.01 0.00 0.00 0.00 0.00 0.00 0.00 0.00 0.00 0.00 0.00 0.00 0.00 0.00 0.00 0.00 0.00 0.00 0.00 0.00 0.00 0.00 0.00 0.00 0.00 0.00 0.00 0.00 0.00 0.00 0.00 0.00 0.00 0.00 0.00 0.00
0.10 0.10 0.09 0.11 0.19 0.31 0.38 0.37 0.31 0.20 0.14 0.07 0.04 0.03 0.01 0.01 0.00 0.00 0.00 0.00 0.00 0.00 0.00 0.00 0.00 0.00 0.00 0.00 0.00 0.00 0.00 0.00 0.00 0.00 0.00 0.00 0.00 0.00 0.00 0.00 0.00 0.00 0.00 0.00 0.00 0.00 0.00
0.07 0.13 0.16 0.13 0.11 0.14 0.19 0.27 0.36 0.46 0.45 0.34 0.21 0.12 0.06 0.05 0.03 0.02 0.02 0.01 0.01 0.00 0.00 0.00 0.00 0.00 0.00 0.00 0.00 0.00 0.00 0.00 0.00 0.00 0.00 0.00 0.00 0.00 0.00 0.00 0.00 0.00 0.00 0.00 0.00 0.00 0.00
0.03 0.04 0.10 0.17 0.20 0.18 0.20 0.22 0.26 0.30 0.35 0.43 0.47 0.41 0.30 0.22 0.14 0.08 0.04 0.02 0.01 0.00 0.00 0.00 0.00 0.00 0.00 0.00 0.00 0.00 0.00 0.00 0.00 0.00 0.00 0.00 0.00 0.00 0.00 0.00 0.00 0.00 0.00 0.00 0.00 0.00 0.00
0.02 0.04 0.03 0.05 0.13 0.24 0.28 0.27 0.29 0.27 0.30 0.35 0.41 0.44 0.41 0.36 0.28 0.18 0.08 0.04 0.02 0.00 0.00 0.00 0.01 0.01 0.00 0.00 0.00 0.00 0.00 0.00 0.00 0.00 0.00 0.00 0.00 0.00 0.00 0.00 0.00 0.00 0.00 0.00 0.00 0.00 0.00
0.02 0.02 0.04 0.06 0.06 0.06 0.13 0.23 0.26 0.21 0.20 0.22 0.24 0.27 0.28 0.29 0.28 0.25 0.17 0.08 0.04 0.01 0.01 0.00 0.00 0.00 0.00 0.00 0.00 0.00 0.00 0.00 0.00 0.00 0.00 0.00 0.00 0.00 0.00 0.00 0.00 0.00 0.00 0.00 0.00 0.00 0.00
0.02 0.01 0.01 0.01 0.03 0.05 0.06 0.06 0.09 0.11 0.16 0.18 0.18 0.20 0.24 0.24 0.26 0.28 0.22 0.12 0.11 0.06 0.03 0.00 0.00 0.00 0.00 0.00 0.00 0.00 0.00 0.00 0.00 0.00 0.00 0.00 0.00 0.00 0.00 0.00 0.00 0.00 0.00 0.00 0.00 0.00 0.00
0.01 0.01 0.01 0.01 0.01 0.02 0.03 0.04 0.05 0.04 0.04 0.07 0.16 0.25 0.31 0.30 0.31 0.27 0.28 0.25 0.19 0.16 0.13 0.01 0.00 0.00 0.00 0.00 0.00 0.00 0.00 0.00 0.00 0.00 0.00 0.00 0.00 0.00 0.00 0.00 0.00 0.00 0.00 0.00 0.00 0.00 0.00
0.00 0.00 0.00 0.00 0.00 0.01 0.01 0.02 0.02 0.03 0.05 0.05 0.05 0.17 0.33 0.36 0.38 0.21 0.27 0.21 0.27 0.28 0.23 0.01 0.00 0.00 0.00 0.00 0.00 0.00 0.00 0.00 0.00 0.00 0.00 0.00 0.00 0.00 0.00 0.00 0.00 0.00 0.00 0.00 0.00 0.00 0.00
0.01 0.00 0.00 0.00 0.00 0.00 0.00 0.00 0.01 0.01 0.02 0.03 0.03 0.02 0.15 0.25 0.13 0.08 0.06 0.11 0.36 0.27 0.51 0.01 0.00 0.00 0.00 0.00 0.00 0.00 0.00 0.00 0.00 0.00 0.00 0.00 0.00 0.00 0.00 0.00 0.00 0.00 0.00 0.00 0.00 0.00 0.00
0.03 0.02 0.01 0.00 0.00 0.00 0.00 0.00 0.00 0.01 0.01 0.02 0.02 0.03 0.07 0.19 0.07 0.07 0.15 0.27 0.31 0.44 0.43 0.00 0.00 0.00 0.00 0.00 0.00 0.00 0.00 0.00 0.00 0.00 0.00 0.00 0.00 0.00 0.00 0.00 0.00 0.00 0.00 0.00 0.00 0.00 0.00
0.04 0.02 0.02 0.02 0.01 0.01 0.01 0.01 0.00 0.01 0.01 0.02 0.02 0.04 0.06 0.09 0.03 0.04 0.32 0.44 0.50 0.31 0.05 0.00 0.00 0.00 0.00 0.00 0.00 0.00 0.00 0.00 0.01 0.01 0.00 0.00 0.00 0.00 0.00 0.00 0.00 0.00 0.00 0.00 0.00 0.00 0.00
0.04 0.03 0.02 0.01 0.01 0.01 0.01 0.02 0.02 0.01 0.01 0.03 0.03 0.04 0.03 0.01 0.07 0.16 0.73 0.87 0.61 0.05 0.00 0.00 0.00 0.00 0.00 0.00 0.00 0.00 0.01 0.00 0.01 0.01 0.02 0.02 0.00 0.00 0.00 0.00 0.00 0.00 0.00 0.00 0.01 0.00 0.00
0.02 0.02 0.01 0.00 0.00 0.00 0.01 0.02 0.03 0.02 0.02 0.03 0.08 0.06 0.02 0.00 0.01 0.15 0.69 1.12 0.34 0.00 0.00 0.00 0.01 0.00 0.00 0.00 0.00 0.00 0.01 0.01 0.00 0.01 0.07 0.11 0.03 0.00 0.00 0.00 0.00 0.00 0.00 0.00 0.02 0.05 0.02
0.04 0.03 0.02 0.00 0.00 0.00 0.00 0.00 0.03 0.05 0.04 0.06 0.11 0.13 0.01 0.00 0.03 0.25 0.75 0.69 0.06 0.00 0.00 0.00 0.02 0.00 0.00 0.00 0.00 0.00 0.01 0.00 0.00 0.00 0.04 0.03 0.04 0.00 0.00 0.00 0.00 0.02 0.00 0.03 0.12 0.08 0.03
0.04 0.05 0.05 0.03 0.01 0.01 0.00 0.00 0.03 0.08 0.10 0.15 0.30 0.44 0.06 0.01 0.17 0.39 0.71 0.39 0.01 0.00 0.00 0.00 0.00 0.00 0.00 0.00 0.00 0.00 0.00 0.00 0.00 0.00 0.02 0.04 0.05 0.02 0.00 0.00 0.00 0.00 0.01 0.10 0.15 0.06 0.03
0.02 0.03 0.03 0.04 0.02 0.01 0.01 0.01 0.02 0.09 0.21 0.35 0.68 0.73 0.10 0.07 0.29 0.31 0.26 0.05 0.00 0.00 0.00 0.00 0.00 0.00 0.00 0.00 0.00 0.00 0.00 0.00 0.00 0.00 0.01 0.02 0.03 0.01 0.00 0.00 0.00 0.00 0.00 0.01 0.05 0.03 0.00
0.01 0.02 0.02 0.03 0.03 0.02 0.02 0.01 0.02 0.06 0.30 0.65 0.94 0.63 0.29 0.33 0.39 0.33 0.08 0.00 0.00 0.00 0.00 0.01 0.01 0.00 0.00 0.00 0.00 0.00 0.00 0.00 0.00 0.00 0.00 0.00 0.08 0.04 0.01 0.00 0.00 0.00 0.00 0.00 0.00 0.03 0.07
0.02 0.02 0.01 0.01 0.02 0.02 0.02 0.01 0.02 0.05 0.20 0.65 1.13 0.76 0.37 0.66 0.53 0.24 0.09 0.02 0.00 0.00 0.00 0.01 0.01 0.00 0.00 0.00 0.00 0.00 0.00 0.00 0.00 0.00 0.00 0.00 0.01 0.06 0.03 0.00 0.00 0.00 0.00 0.00 0.02 0.05 0.03
0.02 0.02 0.02 0.02 0.02 0.02 0.02 0.01 0.02 0.05 0.15 0.67 1.34 0.96 0.41 0.59 0.53 0.29 0.16 0.07 0.01 0.00 0.00 0.02 0.03 0.00 0.00 0.00 0.00 0.00 0.00 0.00 0.00 0.00 0.00 0.01 0.01 0.00 0.01 0.02 0.01 0.01 0.00 0.00 0.00 0.01 0.01
0.04 0.02 0.02 0.02 0.02 0.02 0.02 0.02 0.02 0.05 0.24 0.68 1.19 0.78 0.39 0.27 0.16 0.27 0.23 0.16 0.04 0.00 0.00 0.01 0.03 0.00 0.01 0.01 0.01 0.04 0.09 0.02 0.00 0.00 0.00 0.00 0.01 0.01 0.01 0.00 0.01 0.03 0.01 0.00 0.00 0.00 0.00
0.07 0.06 0.03 0.02 0.03 0.03 0.03 0.04 0.04 0.06 0.27 0.78 1.06 0.51 0.64 0.42 0.21 0.23 0.28 0.14 0.03 0.03 0.03 0.00 0.00 0.03 0.06 0.02 0.06 0.04 0.05 0.06 0.04 0.01 0.03 0.02 0.01 0.01 0.02 0.00 0.06 0.15 0.00 0.00 0.00 0.00 0.00
0.13 0.11 0.09 0.05 0.04 0.03 0.03 0.04 0.05 0.09 0.19 0.49 0.61 0.48 0.44 0.47 0.36 0.37 0.18 0.10 0.08 0.04 0.07 0.05 0.04 0.04 0.03 0.07 0.13 0.13 0.09 0.09 0.08 0.04 0.04 0.04 0.02 0.03 0.01 0.03 0.22 0.07 0.00 0.00 0.00 0.00 0.00
0.12 0.13 0.15 0.14 0.10 0.06 0.05 0.03 0.04 0.09 0.17 0.31 0.31 0.29 0.66 0.40 0.23 0.26 0.22 0.19 0.10 0.04 0.12 0.14 0.15 0.20 0.15 0.22 0.27 0.31 0.35 0.28 0.10 0.03 0.04 0.02 0.03 0.08 0.12 0.09 0.04 0.00 0.00 0.00 0.00 0.00 0.00
0.12 0.10 0.12 0.15 0.15 0.12 0.09 0.06 0.04 0.07 0.17 0.29 0.24 0.21 0.35 0.44 0.16 0.18 0.21 0.13 0.18 0.18 0.13 0.09 0.23 0.41 0.56 0.52 0.36 0.25 0.22 0.16 0.11 0.06 0.02 0.04 0.06 0.11 0.14 0.13 0.07 0.00 0.00 0.00 0.00 0.00 0.00
0.12 0.10 0.10 0.12 0.13 0.14 0.14 0.14 0.13 0.09 0.24 0.44 0.28 0.17 0.43 0.40 0.09 0.14 0.35 0.20 0.14 0.17 0.17 0.07 0.14 0.36 0.46 0.73 0.79 0.55 0.25 0.05 0.05 0.04 0.05 0.12 0.18 0.17 0.09 0.09 0.01 0.00 0.00 0.00 0.00 0.00 0.00
0.11 0.11 0.10 0.10 0.11 0.13 0.15 0.17 0.20 0.21 0.41 0.43 0.40 0.15 0.19 0.31 0.10 0.10 0.23 0.24 0.20 0.16 0.16 0.11 0.20 0.20 0.47 0.40 0.55 0.70 0.49 0.26 0.11 0.03 0.02 0.06 0.18 0.19 0.16 0.20 0.04 0.00 0.00 0.00 0.00 0.00 0.00
0.09 0.10 0.10 0.10 0.09 0.11 0.15 0.19 0.32 0.33 0.35 0.50 0.31 0.26 0.14 0.22 0.20 0.19 0.30 0.23 0.19 0.21 0.24 0.16 0.15 0.07 0.08 0.18 0.16 0.14 0.22 0.34 0.30 0.19 0.08 0.04 0.02 0.02 0.03 0.05 0.01 0.00 0.00 0.00 0.00 0.00 0.00

GFSGBSN_prec_precacc12_156.txt.gz
Total_Precipitation_Accumulation
0.05 0.07 0.10 0.09 0.07 0.05 0.03 0.01 0.00 0.00 0.00 0.00 0.00 0.00 0.00 0.00 0.00 0.00 0.00 0.00 0.00 0.00 0.00 0.00 0.00 0.00 0.00 0.00 0.00 0.00 0.00 0.00 0.00 0.00 0.00 0.00 0.00 0.00 0.00 0.00 0.00 0.00 0.00 0.00 0.00 0.00 0.00
0.04 0.05 0.06 0.13 0.17 0.15 0.10 0.06 0.04 0.03 0.04 0.01 0.00 0.00 0.00 0.00 0.00 0.00 0.00 0.00 0.00 0.00 0.00 0.00 0.00 0.00 0.00 0.00 0.00 0.00 0.00 0.00 0.00 0.00 0.00 0.00 0.00 0.00 0.00 0.00 0.00 0.00 0.00 0.00 0.00 0.00 0.00
0.02 0.04 0.05 0.06 0.11 0.19 0.24 0.26 0.24 0.18 0.14 0.07 0.05 0.03 0.02 0.01 0.00 0.00 0.00 0.00 0.00 0.00 0.00 0.01 0.00 0.00 0.00 0.00 0.00 0.00 0.00 0.00 0.00 0.00 0.00 0.00 0.00 0.00 0.00 0.00 0.00 0.00 0.00 0.00 0.00 0.00 0.00
0.03 0.04 0.06 0.07 0.06 0.10 0.13 0.17 0.24 0.35 0.37 0.31 0.20 0.11 0.06 0.05 0.04 0.03 0.02 0.01 0.01 0.01 0.00 0.01 0.00 0.00 0.00 0.00 0.00 0.00 0.00 0.00 0.00 0.00 0.00 0.00 0.00 0.00 0.00 0.00 0.00 0.00 0.00 0.00 0.00 0.00 0.00
0.03 0.03 0.04 0.08 0.10 0.11 0.12 0.15 0.20 0.25 0.30 0.36 0.43 0.39 0.30 0.22 0.16 0.09 0.04 0.02 0.01 0.00 0.00 0.00 0.00 0.00 0.00 0.00 0.00 0.00 0.00 0.00 0.00 0.00 0.00 0.00 0.00 0.00 0.00 0.00 0.00 0.00 0.00 0.00 0.00 0.00 0.00
0.01 0.03 0.03 0.03 0.04 0.09 0.15 0.17 0.19 0.18 0.20 0.29 0.39 0.43 0.42 0.37 0.29 0.18 0.08 0.03 0.02 0.00 0.00 0.00 0.02 0.01 0.00 0.00 0.00 0.00 0.00 0.00 0.00 0.00 0.00 0.00 0.00 0.00 0.00 0.00 0.00 0.00 0.00 0.00 0.00 0.00 0.00
0.02 0.01 0.03 0.05 0.06 0.04 0.05 0.09 0.14 0.13 0.12 0.14 0.18 0.24 0.27 0.28 0.26 0.19 0.10 0.03 0.01 0.01 0.01 0.00 0.01 0.00 0.00 0.00 0.00 0.00 0.00 0.00 0.00 0.00 0.00 0.00 0.00 0.00 0.00 0.00 0.00 0.00 0.00 0.00 0.00 0.00 0.00
0.03 0.02 0.01 0.00 0.02 0.04 0.05 0.06 0.07 0.05 0.07 0.11 0.14 0.18 0.22 0.24 0.20 0.20 0.14 0.10 0.10 0.05 0.02 0.00 0.00 0.00 0.00 0.00 0.00 0.00 0.00 0.00 0.00 0.00 0.00 0.00 0.00 0.00 0.00 0.00 0.00 0.00 0.00 0.00 0.00 0.00 0.00
0.01 0.01 0.01 0.01 0.00 0.01 0.02 0.04 0.06 0.04 0.02 0.03 0.11 0.19 0.27 0.27 0.29 0.28 0.27 0.26 0.19 0.15 0.11 0.01 0.00 0.00 0.00 0.00 0.00 0.00 0.00 0.00 0.00 0.00 0.00 0.00 0.00 0.00 0.00 0.00 0.00 0.00 0.00 0.00 0.00 0.00 0.00
0.00 0.00 0.00 0.00 0.00 0.01 0.00 0.01 0.02 0.02 0.02 0.03 0.04 0.16 0.30 0.32 0.32 0.20 0.23 0.20 0.25 0.19 0.22 0.01 0.00 0.00 0.00 0.00 0.00 0.00 0.00 0.00 0.00 0.00 0.00 0.00 0.00 0.00 0.00 0.00 0.00 0.00 0.00 0.00 0.00 0.00 0.00
0.03 0.02 0.01 0.00 0.00 0.00 0.00 0.00 0.00 0.01 0.01 0.03 0.03 0.02 0.12 0.25 0.13 0.08 0.04 0.07 0.28 0.24 0.55 0.02 0.00 0.00 0.00 0.00 0.00 0.00 0.00 0.00 0.00 0.00 0.00 0.00 0.00 0.00 0.00 0.00 0.00 0.00 0.00 0.00 0.00 0.00 0.00
0.08 0.05 0.03 0.01 0.01 0.00 0.00 0.00 0.00 0.00 0.01 0.01 0.02 0.03 0.04 0.18 0.09 0.06 0.15 0.23 0.31 0.37 0.41 0.00 0.00 0.00 0.00 0.00 0.00 0.00 0.00 0.00 0.00 0.00 0.00 0.00 0.00 0.00 0.00 0.00 0.00 0.00 0.00 0.00 0.00 0.00 0.00
0.12 0.10 0.07 0.05 0.03 0.01 0.00 0.00 0.00 0.00 0.01 0.02 0.02 0.04 0.06 0.05 0.07 0.05 0.28 0.39 0.55 0.34 0.04 0.00 0.00 0.00 0.00 0.00 0.00 0.00 0.00 0.00 0.01 0.02 0.01 0.00 0.00 0.00 0.00 0.00 0.00 0.00 0.00 0.00 0.00 0.00 0.00
0.11 0.11 0.10 0.08 0.06 0.04 0.02 0.01 0.00 0.00 0.00 0.02 0.03 0.04 0.04 0.02 0.03 0.08 0.62 0.83 0.60 0.05 0.00 0.00 0.00 0.00 0.01 0.00 0.00 0.00 0.01 0.00 0.01 0.01 0.02 0.02 0.00 0.00 0.00 0.00 0.00 0.00 0.00 0.00 0.01 0.00 0.00
0.05 0.07 0.07 0.07 0.06 0.04 0.02 0.02 0.01 0.01 0.01 0.02 0.06 0.05 0.01 0.00 0.02 0.07 0.58 1.14 0.35 0.00 0.00 0.00 0.01 0.01 0.01 0.00 0.00 0.01 0.02 0.01 0.00 0.02 0.09 0.13 0.03 0.00 0.00 0.00 0.00 0.01 0.00 0.00 0.03 0.07 0.03
0.04 0.05 0.05 0.05 0.04 0.03 0.02 0.01 0.00 0.01 0.02 0.05 0.09 0.11 0.01 0.00 0.05 0.18 0.76 0.65 0.06 0.00 0.00 0.00 0.02 0.01 0.00 0.00 0.02 0.03 0.03 0.01 0.01 0.02 0.12 0.09 0.07 0.01 0.01 0.00 0.00 0.02 0.00 0.07 0.30 0.19 0.05
0.04 0.06 0.06 0.06 0.04 0.03 0.02 0.01 0.01 0.01 0.04 0.13 0.25 0.40 0.06 0.01 0.20 0.34 0.63 0.32 0.01 0.00 0.00 0.00 0.00 0.00 0.00 0.00 0.00 0.02 0.01 0.00 0.00 0.01 0.11 0.15 0.14 0.04 0.02 0.04 0.02 0.03 0.05 0.28 0.31 0.19 0.11
0.02 0.03 0.04 0.06 0.06 0.03 0.02 0.01 0.01 0.01 0.04 0.22 0.57 0.65 0.09 0.12 0.34 0.39 0.28 0.04 0.00 0.00 0.00 0.00 0.00 0.00 0.00 0.00 0.00 0.00 0.00 0.00 0.00 0.02 0.04 0.08 0.14 0.09 0.02 0.00 0.00 0.02 0.07 0.18 0.26 0.20 0.09
0.01 0.01 0.02 0.04 0.05 0.06 0.06 0.03 0.02 0.03 0.06 0.21 0.66 0.54 0.17 0.34 0.49 0.39 0.10 0.04 0.00 0.00 0.00 0.01 0.01 0.00 0.01 0.01 0.00 0.00 0.00 0.00 0.01 0.01 0.01 0.02 0.15 0.14 0.05 0.03 0.02 0.01 0.00 0.01 0.04 0.12 0.18
0.01 0.01 0.01 0.01 0.03 0.05 0.06 0.07 0.04 0.05 0.07 0.17 0.68 0.60 0.26 0.58 0.63 0.31 0.11 0.03 0.00 0.00 0.00 0.01 0.01 0.01 0.01 0.05 0.02 0.00 0.00 0.00 0.00 0.00 0.01 0.04 0.04 0.06 0.03 0.00 0.00 0.02 0.02 0.02 0.10 0.20 0.09
0.03 0.02 0.01 0.01 0.01 0.02 0.04 0.05 0.05 0.05 0.08 0.19 0.65 0.62 0.33 0.56 0.52 0.34 0.24 0.15 0.03 0.01 0.01 0.02 0.03 0.01 0.01 0.02 0.02 0.01 0.00 0.00 0.00 0.00 0.01 0.06 0.13 0.05 0.04 0.02 0.01 0.01 0.00 0.00 0.01 0.02 0.02
0.03 0.02 0.02 0.01 0.01 0.02 0.02 0.03 0.05 0.06 0.17 0.26 0.55 0.45 0.31 0.26 0.16 0.28 0.24 0.17 0.03 0.00 0.02 0.04 0.04 0.00 0.02 0.03 0.03 0.02 0.02 0.01 0.00 0.00 0.00 0.00 0.03 0.03 0.07 0.02 0.02 0.04 0.01 0.00 0.00 0.00 0.00
0.06 0.05 0.03 0.03 0.02 0.01 0.02 0.03 0.06 0.08 0.23 0.19 0.43 0.31 0.44 0.37 0.20 0.21 0.29 0.16 0.04 0.04 0.04 0.01 0.01 0.02 0.05 0.01 0.05 0.04 0.07 0.08 0.06 0.03 0.02 0.02 0.01 0.03 0.05 0.00 0.08 0.17 0.00 0.00 0.00 0.00 0.00
0.14 0.11 0.09 0.05 0.04 0.03 0.03 0.03 0.05 0.09 0.14 0.08 0.23 0.33 0.29 0.32 0.32 0.36 0.18 0.11 0.08 0.04 0.14 0.06 0.06 0.04 0.00 0.02 0.12 0.13 0.11 0.09 0.09 0.09 0.03 0.03 0.03 0.04 0.03 0.04 0.28 0.08 0.00 0.00 0.00 0.00 0.00
0.15 0.14 0.16 0.14 0.09 0.06 0.05 0.05 0.05 0.09 0.15 0.11 0.04 0.15 0.51 0.32 0.18 0.25 0.22 0.19 0.09 0.03 0.08 0.08 0.08 0.15 0.12 0.19 0.22 0.22 0.25 0.22 0.08 0.03 0.02 0.02 0.03 0.10 0.15 0.09 0.04 0.00 0.00 0.00 0.00 0.00 0.00
0.13 0.12 0.14 0.16 0.15 0.12 0.09 0.07 0.06 0.09 0.14 0.15 0.08 0.05 0.21 0.38 0.13 0.17 0.20 0.14 0.17 0.16 0.10 0.06 0.13 0.24 0.49 0.57 0.40 0.25 0.14 0.13 0.10 0.05 0.01 0.03 0.04 0.11 0.20 0.16 0.07 0.00 0.00 0.00 0.00 0.00 0.00
0.12 0.12 0.12 0.13 0.14 0.14 0.15 0.16 0.14 0.11 0.13 0.15 0.08 0.06 0.19 0.34 0.08 0.11 0.30 0.19 0.15 0.20 0.16 0.04 0.08 0.14 0.31 0.79 0.92 0.58 0.24 0.05 0.04 0.03 0.04 0.10 0.18 0.19 0.13 0.12 0.02 0.00 0.00 0.00 0.00 0.00 0.00
0.12 0.12 0.12 0.11 0.13 0.13 0.15 0.17 0.22 0.20 0.14 0.19 0.07 0.08 0.11 0.27 0.09 0.10 0.23 0.22 0.20 0.16 0.16 0.13 0.29 0.23 0.44 0.43 0.56 0.80 0.57 0.29 0.14 0.03 0.02 0.07 0.21 0.23 0.19 0.24 0.06 0.00 0.00 0.00 0.00 0.00 0.00
0.11 0.12 0.12 0.12 0.11 0.12 0.14 0.17 0.19 0.21 0.24 0.31 0.19 0.09 0.10 0.20 0.16 0.16 0.26 0.20 0.18 0.21 0.23 0.15 0.24 0.21 0.22 0.26 0.16 0.13 0.23 0.37 0.33 0.22 0.12 0.10 0.05 0.05 0.06 0.07 0.01 0.00 0.00 0.00 0.00 0.00 0.00

GFSGBSN_prec_precacc12_162.txt.gz
Total_Precipitation_Accumulation
0.00 0.00 0.01 0.01 0.01 0.01 0.01 0.01 0.00 0.00 0.00 0.01 0.00 0.00 0.00 0.00 0.00 0.00 0.00 0.00 0.00 0.00 0.00 0.00 0.00 0.00 0.00 0.00 0.00 0.00 0.00 0.00 0.00 0.00 0.00 0.00 0.00 0.00 0.00 0.00 0.00 0.00 0.00 0.00 0.00 0.00 0.00
0.00 0.00 0.00 0.00 0.00 0.01 0.01 0.01 0.01 0.02 0.03 0.02 0.01 0.01 0.00 0.00 0.00 0.00 0.00 0.00 0.00 0.00 0.00 0.01 0.00 0.00 0.00 0.00 0.00 0.00 0.00 0.00 0.00 0.00 0.00 0.00 0.00 0.00 0.00 0.00 0.00 0.00 0.00 0.00 0.00 0.00 0.00
0.00 0.00 0.00 0.00 0.00 0.00 0.01 0.01 0.02 0.03 0.04 0.04 0.02 0.02 0.01 0.01 0.01 0.01 0.01 0.00 0.00 0.00 0.01 0.01 0.01 0.00 0.01 0.00 0.00 0.00 0.00 0.00 0.00 0.00 0.00 0.00 0.00 0.00 0.00 0.00 0.00 0.00 0.00 0.00 0.00 0.00 0.00
0.01 0.00 0.00 0.00 0.00 0.01 0.00 0.00 0.01 0.02 0.04 0.07 0.07 0.05 0.03 0.02 0.02 0.02 0.01 0.01 0.01 0.01 0.00 0.01 0.01 0.01 0.01 0.00 0.00 0.00 0.00 0.00 0.00 0.00 0.00 0.00 0.00 0.00 0.00 0.00 0.00 0.00 0.00 0.00 0.00 0.00 0.00
0.02 0.02 0.00 0.00 0.00 0.02 0.02 0.03 0.05 0.05 0.05 0.05 0.07 0.09 0.07 0.06 0.05 0.03 0.01 0.01 0.00 0.00 0.00 0.00 0.01 0.01 0.01 0.00 0.00 0.00 0.00 0.00 0.00 0.00 0.00 0.00 0.00 0.00 0.00 0.00 0.00 0.00 0.00 0.00 0.00 0.00 0.00
0.00 0.02 0.02 0.01 0.00 0.00 0.01 0.01 0.06 0.08 0.08 0.09 0.09 0.13 0.14 0.12 0.09 0.05 0.02 0.01 0.00 0.00 0.00 0.00 0.05 0.04 0.00 0.00 0.00 0.00 0.00 0.00 0.00 0.00 0.00 0.00 0.00 0.00 0.00 0.00 0.00 0.00 0.00 0.00 0.00 0.00 0.00
0.03 0.03 0.04 0.05 0.05 0.02 0.01 0.01 0.03 0.03 0.03 0.04 0.06 0.07 0.09 0.11 0.11 0.08 0.03 0.01 0.01 0.00 0.01 0.00 0.02 0.01 0.00 0.00 0.00 0.00 0.00 0.00 0.00 0.00 0.00 0.00 0.00 0.00 0.00 0.00 0.00 0.00 0.00 0.00 0.00 0.00 0.00
0.05 0.04 0.04 0.04 0.04 0.04 0.04 0.04 0.06 0.03 0.00 0.00 0.01 0.03 0.06 0.10 0.12 0.08 0.05 0.04 0.03 0.02 0.01 0.00 0.00 0.00 0.00 0.00 0.00 0.00 0.00 0.00 0.00 0.00 0.00 0.00 0.00 0.00 0.00 0.00 0.00 0.00 0.00 0.00 0.00 0.00 0.00
0.02 0.02 0.02 0.02 0.02 0.02 0.02 0.03 0.04 0.02 0.01 0.00 0.00 0.00 0.01 0.04 0.09 0.08 0.08 0.10 0.10 0.08 0.06 0.00 0.00 0.00 0.00 0.00 0.00 0.00 0.00 0.00 0.00 0.00 0.00 0.00 0.00 0.00 0.00 0.00 0.00 0.00 0.00 0.00 0.00 0.00 0.00
0.01 0.01 0.01 0.02 0.02 0.03 0.03 0.03 0.03 0.02 0.02 0.02 0.00 0.00 0.02 0.07 0.17 0.04 0.05 0.07 0.13 0.09 0.12 0.01 0.00 0.00 0.00 0.00 0.00 0.00 0.00 0.00 0.00 0.00 0.00 0.00 0.00 0.00 0.00 0.00 0.00 0.00 0.00 0.00 0.00 0.00 0.00
0.05 0.04 0.02 0.01 0.02 0.02 0.03 0.03 0.02 0.02 0.02 0.02 0.02 0.02 0.04 0.14 0.08 0.05 0.01 0.03 0.12 0.09 0.34 0.02 0.00 0.00 0.00 0.00 0.00 0.00 0.00 0.00 0.00 0.00 0.00 0.00 0.00 0.00 0.00 0.00 0.00 0.00 0.00 0.00 0.00 0.00 0.00
0.10 0.09 0.07 0.06 0.06 0.04 0.03 0.02 0.01 0.00 0.00 0.00 0.00 0.03 0.04 0.17 0.09 0.04 0.04 0.15 0.20 0.17 0.23 0.00 0.00 0.00 0.00 0.00 0.00 0.00 0.00 0.00 0.00 0.00 0.00 0.00 0.00 0.00 0.00 0.00 0.00 0.00 0.00 0.00 0.00 0.00 0.00
0.12 0.14 0.14 0.11 0.08 0.06 0.04 0.04 0.03 0.01 0.00 0.01 0.01 0.03 0.07 0.08 0.10 0.06 0.12 0.36 0.43 0.16 0.01 0.00 0.00 0.00 0.00 0.00 0.00 0.00 0.00 0.00 0.00 0.01 0.01 0.00 0.00 0.00 0.00 0.00 0.00 0.00 0.01 0.06 0.03 0.00 0.00
0.12 0.13 0.16 0.21 0.21 0.17 0.12 0.08 0.04 0.02 0.00 0.00 0.01 0.02 0.07 0.05 0.11 0.20 0.33 0.46 0.46 0.02 0.00 0.00 0.00 0.00 0.01 0.00 0.00 0.00 0.02 0.01 0.00 0.01 0.02 0.01 0.00 0.00 0.00 0.00 0.00 0.00 0.01 0.05 0.03 0.00 0.00
0.05 0.08 0.08 0.12 0.18 0.22 0.24 0.25 0.19 0.09 0.02 0.00 0.01 0.01 0.01 0.02 0.11 0.21 0.54 0.89 0.26 0.00 0.00 0.00 0.00 0.00 0.01 0.00 0.01 0.06 0.06 0.02 0.01 0.06 0.11 0.11 0.02 0.00 0.00 0.00 0.00 0.03 0.05 0.02 0.10 0.12 0.05
0.04 0.05 0.06 0.07 0.10 0.16 0.20 0.24 0.27 0.25 0.12 0.04 0.01 0.04 0.00 0.01 0.19 0.29 0.79 0.68 0.12 0.00 0.00 0.00 0.00 0.00 0.00 0.00 0.04 0.07 0.07 0.03 0.06 0.08 0.28 0.17 0.10 0.02 0.02 0.01 0.01 0.02 0.01 0.18 0.70 0.37 0.11
0.03 0.06 0.07 0.10 0.10 0.10 0.09 0.07 0.12 0.16 0.14 0.11 0.03 0.07 0.01 0.02 0.25 0.51 0.84 0.38 0.03 0.00 0.01 0.01 0.02 0.02 0.01 0.00 0.00 0.02 0.02 0.00 0.01 0.02 0.24 0.29 0.26 0.13 0.08 0.08 0.05 0.06 0.14 0.58 0.52 0.28 0.13
0.01 0.02 0.04 0.08 0.13 0.13 0.13 0.10 0.08 0.07 0.10 0.12 0.06 0.10 0.01 0.11 0.35 0.66 0.51 0.13 0.02 0.00 0.00 0.02 0.01 0.01 0.00 0.01 0.01 0.00 0.00 0.00 0.00 0.02 0.06 0.16 0.28 0.23 0.09 0.07 0.05 0.12 0.27 0.60 0.60 0.44 0.22
0.01 0.01 0.02 0.04 0.08 0.12 0.17 0.16 0.14 0.12 0.08 0.03 0.02 0.03 0.04 0.28 0.37 0.42 0.15 0.09 0.11 0.04 0.02 0.06 0.04 0.04 0.04 0.04 0.04 0.03 0.02 0.01 0.01 0.02 0.03 0.06 0.19 0.21 0.11 0.12 0.18 0.14 0.12 0.30 0.43 0.68 0.75
0.02 0.01 0.00 0.01 0.03 0.07 0.13 0.22 0.23 0.20 0.14 0.03 0.01 0.01 0.01 0.13 0.35 0.29 0.14 0.07 0.06 0.04 0.07 0.06 0.07 0.04 0.06 0.13 0.14 0.18 0.08 0.04 0.01 0.01 0.02 0.07 0.09 0.08 0.07 0.06 0.07 0.14 0.12 0.25 0.48 0.63 0.37
0.04 0.04 0.02 0.01 0.01 0.02 0.06 0.14 0.24 0.27 0.20 0.05 0.00 0.00 0.01 0.06 0.03 0.16 0.29 0.23 0.06 0.04 0.10 0.11 0.11 0.02 0.02 0.06 0.09 0.15 0.10 0.13 0.13 0.10 0.08 0.13 0.19 0.10 0.10 0.13 0.16 0.12 0.06 0.07 0.21 0.21 0.22
0.03 0.03 0.04 0.03 0.02 0.02 0.02 0.07 0.19 0.20 0.38 0.24 0.02 0.00 0.01 0.03 0.04 0.14 0.17 0.18 0.08 0.05 0.19 0.19 0.21 0.07 0.08 0.06 0.04 0.02 0.05 0.09 0.14 0.13 0.13 0.16 0.16 0.06 0.08 0.02 0.09 0.15 0.05 0.02 0.03 0.03 0.04
0.05 0.04 0.03 0.03 0.03 0.03 0.03 0.04 0.15 0.20 0.25 0.20 0.04 0.00 0.01 0.01 0.02 0.06 0.11 0.12 0.04 0.09 0.12 0.12 0.14 0.08 0.08 0.06 0.03 0.03 0.08 0.09 0.08 0.08 0.09 0.13 0.09 0.10 0.08 0.01 0.13 0.23 0.01 0.00 0.00 0.00 0.00
0.12 0.08 0.06 0.05 0.04 0.04 0.04 0.03 0.07 0.14 0.13 0.00 0.00 0.00 0.00 0.01 0.01 0.03 0.05 0.08 0.08 0.04 0.16 0.07 0.08 0.12 0.03 0.01 0.06 0.08 0.09 0.08 0.09 0.09 0.09 0.18 0.19 0.24 0.19 0.11 0.31 0.06 0.00 0.00 0.00 0.00 0.00
0.12 0.14 0.12 0.09 0.06 0.05 0.05 0.05 0.06 0.09 0.15 0.01 0.00 0.00 0.00 0.00 0.00 0.00 0.01 0.04 0.05 0.01 0.05 0.05 0.02 0.01 0.02 0.06 0.20 0.16 0.06 0.06 0.02 0.02 0.03 0.06 0.10 0.20 0.23 0.17 0.08 0.00 0.00 0.00 0.00 0.00 0.00
0.09 0.10 0.15 0.15 0.11 0.08 0.07 0.06 0.06 0.08 0.14 0.06 0.00 0.00 0.01 0.01 0.01 0.01 0.04 0.03 0.09 0.09 0.08 0.04 0.00 0.01 0.08 0.22 0.36 0.30 0.10 0.04 0.02 0.02 0.01 0.02 0.03 0.13 0.23 0.18 0.07 0.00 0.00 0.00 0.00 0.00 0.00
0.09 0.09 0.10 0.16 0.16 0.12 0.11 0.14 0.12 0.11 0.13 0.10 0.01 0.00 0.02 0.02 0.00 0.00 0.04 0.03 0.10 0.18 0.15 0.03 0.02 0.04 0.10 0.28 0.52 0.37 0.16 0.05 0.03 0.02 0.05 0.07 0.12 0.15 0.11 0.11 0.03 0.00 0.00 0.00 0.00 0.00 0.00
0.10 0.10 0.10 0.10 0.17 0.16 0.14 0.16 0.20 0.19 0.15 0.17 0.05 0.00 0.01 0.03 0.00 0.00 0.00 0.01 0.02 0.09 0.15 0.12 0.21 0.20 0.21 0.24 0.21 0.40 0.37 0.23 0.13 0.02 0.03 0.08 0.17 0.16 0.12 0.19 0.07 0.00 0.00 0.00 0.00 0.00 0.00
0.11 0.10 0.11 0.11 0.13 0.20 0.17 0.17 0.17 0.22 0.26 0.31 0.26 0.02 0.02 0.08 0.03 0.01 0.00 0.00 0.02 0.04 0.15 0.13 0.23 0.24 0.31 0.37 0.30 0.24 0.30 0.31 0.30 0.25 0.13 0.10 0.06 0.07 0.06 0.04 0.00 0.00 0.00 0.00 0.00 0.00 0.00

GFSGBSN_prec_precacc12_165.txt.gz
Total_Precipitation_Accumulation
0.00 0.00 0.00 0.00 0.00 0.00 0.00 0.00 0.00 0.00 0.00 0.01 0.01 0.00 0.00 0.00 0.00 0.00 0.00 0.00 0.00 0.00 0.00 0.00 0.00 0.00 0.00 0.00 0.00 0.00 0.00 0.00 0.00 0.00 0.00 0.00 0.00 0.00 0.00 0.00 0.00 0.00 0.00 0.00 0.00 0.00 0.00
0.00 0.00 0.00 0.00 0.00 0.00 0.00 0.00 0.00 0.00 0.01 0.01 0.01 0.01 0.00 0.00 0.00 0.00 0.00 0.00 0.00 0.00 0.00 0.01 0.00 0.00 0.00 0.00 0.00 0.00 0.00 0.00 0.00 0.00 0.00 0.00 0.00 0.00 0.00 0.00 0.00 0.00 0.00 0.00 0.00 0.00 0.00
0.00 0.00 0.00 0.00 0.00 0.00 0.00 0.00 0.00 0.00 0.01 0.01 0.01 0.01 0.01 0.01 0.00 0.01 0.01 0.01 0.00 0.00 0.01 0.01 0.01 0.01 0.01 0.00 0.00 0.00 0.00 0.00 0.00 0.00 0.00 0.00 0.00 0.00 0.00 0.00 0.00 0.00 0.00 0.00 0.00 0.00 0.00
0.01 0.00 0.00 0.00 0.00 0.00 0.00 0.00 0.00 0.00 0.01 0.01 0.02 0.02 0.02 0.01 0.02 0.01 0.01 0.00 0.00 0.00 0.00 0.01 0.01 0.02 0.02 0.00 0.00 0.00 0.00 0.00 0.00 0.00 0.00 0.00 0.00 0.00 0.00 0.00 0.00 0.00 0.00 0.00 0.00 0.00 0.00
0.01 0.01 0.00 0.00 0.00 0.01 0.01 0.00 0.01 0.01 0.01 0.01 0.02 0.02 0.02 0.03 0.03 0.02 0.01 0.00 0.00 0.00 0.00 0.00 0.01 0.02 0.01 0.00 0.00 0.00 0.00 0.00 0.00 0.00 0.00 0.00 0.00 0.00 0.00 0.00 0.00 0.00 0.00 0.00 0.00 0.00 0.00
0.00 0.00 0.01 0.00 0.00 0.00 0.00 0.00 0.00 0.02 0.03 0.03 0.03 0.04 0.05 0.05 0.04 0.03 0.01 0.00 0.00 0.00 0.00 0.01 0.05 0.05 0.00 0.00 0.00 0.00 0.00 0.00 0.00 0.00 0.00 0.00 0.00 0.00 0.00 0.00 0.00 0.00 0.00 0.00 0.00 0.00 0.00
0.02 0.03 0.04 0.04 0.04 0.01 0.00 0.00 0.00 0.01 0.00 0.01 0.02 0.03 0.03 0.05 0.05 0.05 0.02 0.01 0.00 0.01 0.02 0.00 0.02 0.01 0.00 0.00 0.00 0.00 0.00 0.00 0.00 0.00 0.00 0.00 0.00 0.00 0.00 0.00 0.00 0.00 0.00 0.00 0.00 0.00 0.00
0.05 0.04 0.04 0.04 0.04 0.03 0.03 0.04 0.04 0.02 0.00 0.00 0.00 0.01 0.01 0.05 0.07 0.05 0.03 0.02 0.02 0.01 0.01 0.00 0.00 0.00 0.00 0.00 0.00 0.00 0.00 0.00 0.00 0.00 0.00 0.00 0.00 0.00 0.00 0.00 0.00 0.00 0.00 0.00 0.00 0.00 0.00
0.02 0.01 0.01 0.01 0.03 0.03 0.03 0.04 0.05 0.03 0.01 0.00 0.00 0.00 0.00 0.00 0.04 0.05 0.04 0.04 0.03 0.02 0.02 0.00 0.00 0.00 0.00 0.00 0.00 0.00 0.00 0.00 0.00 0.00 0.00 0.00 0.00 0.00 0.00 0.00 0.00 0.00 0.00 0.00 0.00 0.00 0.00
0.01 0.01 0.01 0.02 0.03 0.04 0.04 0.04 0.04 0.03 0.03 0.02 0.01 0.00 0.00 0.00 0.02 0.02 0.02 0.02 0.05 0.02 0.05 0.00 0.00 0.00 0.00 0.00 0.00 0.00 0.00 0.00 0.00 0.00 0.00 0.00 0.00 0.00 0.00 0.00 0.00 0.00 0.00 0.00 0.00 0.00 0.00
0.05 0.04 0.02 0.01 0.02 0.02 0.03 0.03 0.03 0.02 0.02 0.03 0.03 0.04 0.02 0.03 0.04 0.05 0.01 0.02 0.09 0.03 0.14 0.01 0.00 0.00 0.00 0.00 0.00 0.00 0.00 0.00 0.00 0.00 0.01 0.00 0.00 0.00 0.00 0.00 0.00 0.00 0.00 0.00 0.00 0.00 0.00
0.08 0.07 0.07 0.06 0.06 0.04 0.03 0.02 0.02 0.01 0.00 0.01 0.02 0.03 0.05 0.08 0.06 0.03 0.04 0.15 0.20 0.09 0.07 0.00 0.00 0.00 0.00 0.00 0.00 0.00 0.00 0.00 0.00 0.00 0.00 0.00 0.00 0.00 0.00 0.00 0.00 0.00 0.01 0.01 0.01 0.01 0.02
0.09 0.12 0.12 0.10 0.08 0.06 0.05 0.04 0.03 0.01 0.01 0.00 0.01 0.03 0.07 0.10 0.11 0.08 0.13 0.29 0.31 0.12 0.00 0.00 0.00 0.00 0.00 0.00 0.00 0.00 0.00 0.00 0.00 0.01 0.01 0.00 0.00 0.00 0.00 0.00 0.00 0.00 0.03 0.12 0.08 0.03 0.01
0.08 0.10 0.15 0.20 0.20 0.17 0.12 0.07 0.05 0.03 0.01 0.00 0.00 0.01 0.06 0.06 0.13 0.25 0.33 0.34 0.31 0.01 0.00 0.00 0.00 0.00 0.01 0.00 0.00 0.00 0.04 0.03 0.01 0.01 0.03 0.03 0.01 0.00 0.00 0.00 0.01 0.00 0.02 0.07 0.06 0.01 0.00
0.03 0.06 0.07 0.11 0.18 0.23 0.24 0.24 0.21 0.13 0.05 0.02 0.00 0.01 0.04 0.03 0.14 0.30 0.52 0.77 0.22 0.00 0.00 0.00 0.00 0.00 0.00 0.00 0.01 0.06 0.06 0.04 0.04 0.09 0.14 0.08 0.01 0.00 0.01 0.00 0.02 0.05 0.07 0.04 0.14 0.12 0.05
0.02 0.03 0.05 0.07 0.11 0.16 0.22 0.25 0.28 0.30 0.22 0.12 0.01 0.02 0.01 0.02 0.25 0.39 0.77 0.78 0.17 0.00 0.00 0.01 0.01 0.00 0.00 0.00 0.03 0.06 0.06 0.03 0.06 0.07 0.27 0.19 0.15 0.02 0.03 0.04 0.02 0.02 0.03 0.21 0.74 0.47 0.15
0.02 0.03 0.04 0.08 0.10 0.11 0.11 0.11 0.14 0.16 0.18 0.26 0.21 0.11 0.01 0.03 0.28 0.56 0.89 0.37 0.06 0.01 0.03 0.03 0.03 0.04 0.02 0.00 0.00 0.02 0.02 0.00 0.03 0.04 0.24 0.34 0.35 0.18 0.12 0.12 0.09 0.12 0.20 0.59 0.42 0.26 0.17
0.00 0.01 0.02 0.06 0.12 0.14 0.16 0.16 0.12 0.08 0.12 0.27 0.33 0.20 0.04 0.11 0.26 0.55 0.52 0.14 0.02 0.01 0.05 0.08 0.04 0.02 0.02 0.04 0.03 0.01 0.00 0.00 0.01 0.02 0.06 0.18 0.33 0.28 0.13 0.08 0.08 0.17 0.39 0.90 0.90 0.52 0.24
0.02 0.01 0.01 0.02 0.06 0.11 0.17 0.18 0.22 0.21 0.13 0.16 0.23 0.11 0.06 0.21 0.20 0.24 0.11 0.10 0.12 0.04 0.04 0.17 0.11 0.08 0.06 0.05 0.06 0.03 0.03 0.04 0.03 0.02 0.05 0.08 0.20 0.22 0.11 0.13 0.20 0.16 0.13 0.38 0.69 0.97 0.99
0.03 0.02 0.01 0.00 0.02 0.05 0.12 0.22 0.27 0.28 0.28 0.24 0.18 0.10 0.06 0.10 0.17 0.13 0.08 0.07 0.08 0.05 0.08 0.08 0.14 0.09 0.10 0.16 0.16 0.21 0.09 0.06 0.05 0.02 0.02 0.08 0.11 0.11 0.08 0.08 0.12 0.17 0.12 0.27 0.54 0.72 0.46
0.04 0.04 0.03 0.03 0.02 0.02 0.05 0.14 0.26 0.32 0.35 0.27 0.11 0.03 0.01 0.04 0.02 0.10 0.17 0.18 0.06 0.05 0.12 0.12 0.14 0.04 0.06 0.15 0.14 0.19 0.11 0.14 0.14 0.12 0.11 0.18 0.20 0.14 0.12 0.15 0.18 0.14 0.08 0.09 0.24 0.26 0.30
0.02 0.03 0.04 0.03 0.03 0.03 0.02 0.06 0.20 0.24 0.58 0.49 0.04 0.01 0.00 0.01 0.01 0.02 0.05 0.08 0.08 0.06 0.27 0.25 0.25 0.09 0.11 0.13 0.11 0.06 0.09 0.11 0.15 0.14 0.16 0.29 0.27 0.15 0.12 0.03 0.09 0.13 0.04 0.02 0.03 0.03 0.04
0.05 0.04 0.03 0.03 0.03 0.03 0.03 0.04 0.15 0.21 0.44 0.51 0.07 0.00 0.01 0.01 0.02 0.02 0.03 0.04 0.03 0.09 0.13 0.13 0.17 0.10 0.07 0.16 0.06 0.03 0.07 0.09 0.08 0.08 0.11 0.19 0.18 0.19 0.12 0.04 0.14 0.18 0.01 0.00 0.00 0.00 0.00
0.12 0.09 0.06 0.04 0.04 0.04 0.04 0.02 0.07 0.16 0.11 0.04 0.00 0.00 0.03 0.04 0.02 0.02 0.01 0.01 0.01 0.03 0.14 0.08 0.09 0.13 0.03 0.03 0.04 0.05 0.07 0.07 0.08 0.08 0.10 0.20 0.22 0.34 0.25 0.11 0.25 0.05 0.00 0.00 0.00 0.00 0.00
0.12 0.14 0.13 0.09 0.06 0.05 0.04 0.05 0.06 0.10 0.14 0.05 0.02 0.02 0.04 0.03 0.03 0.01 0.00 0.00 0.00 0.00 0.00 0.01 0.01 0.01 0.01 0.03 0.16 0.12 0.03 0.04 0.02 0.01 0.02 0.05 0.12 0.25 0.27 0.17 0.09 0.00 0.00 0.00 0.02 0.00 0.00
0.08 0.10 0.15 0.17 0.12 0.07 0.06 0.05 0.06 0.08 0.13 0.08 0.02 0.03 0.04 0.03 0.02 0.00 0.01 0.01 0.00 0.01 0.01 0.01 0.00 0.00 0.03 0.16 0.30 0.25 0.09 0.06 0.04 0.01 0.01 0.01 0.06 0.17 0.23 0.17 0.06 0.00 0.00 0.00 0.00 0.00 0.00
0.08 0.08 0.09 0.15 0.19 0.12 0.09 0.07 0.06 0.09 0.11 0.11 0.04 0.01 0.04 0.05 0.01 0.00 0.00 0.00 0.02 0.06 0.04 0.02 0.02 0.02 0.08 0.21 0.35 0.26 0.10 0.04 0.04 0.03 0.06 0.07 0.14 0.21 0.13 0.12 0.03 0.00 0.00 0.00 0.00 0.00 0.00
0.10 0.09 0.09 0.09 0.17 0.17 0.12 0.09 0.08 0.09 0.11 0.15 0.09 0.02 0.03 0.05 0.01 0.00 0.00 0.00 0.00 0.03 0.06 0.11 0.17 0.19 0.21 0.24 0.12 0.19 0.21 0.10 0.07 0.02 0.05 0.12 0.17 0.15 0.13 0.19 0.07 0.00 0.00 0.00 0.00 0.00 0.00
0.11 0.10 0.10 0.09 0.10 0.19 0.16 0.11 0.11 0.13 0.21 0.29 0.30 0.04 0.02 0.08 0.03 0.00 0.00 0.00 0.00 0.01 0.03 0.07 0.20 0.25 0.33 0.41 0.35 0.24 0.22 0.17 0.11 0.10 0.07 0.13 0.14 0.11 0.09 0.04 0.00 0.00 0.00 0.00 0.00 0.00 0.00

GFSGBSN_prec_precacc12_171.txt.gz
Total_Precipitation_Accumulation
0.00 0.00 0.00 0.00 0.00 0.00 0.00 0.00 0.00 0.00 0.00 0.00 0.01 0.00 0.00 0.00 0.00 0.00 0.00 0.00 0.00 0.00 0.00 0.00 0.00 0.00 0.00 0.00 0.00 0.00 0.00 0.00 0.00 0.00 0.00 0.00 0.00 0.00 0.00 0.00 0.00 0.00 0.00 0.00 0.00 0.00 0.00
0.00 0.00 0.00 0.00 0.00 0.00 0.00 0.00 0.00 0.00 0.00 0.00 0.00 0.00 0.00 0.00 0.00 0.00 0.00 0.00 0.00 0.00 0.00 0.00 0.00 0.00 0.00 0.00 0.00 0.00 0.00 0.00 0.00 0.00 0.00 0.00 0.00 0.00 0.00 0.00 0.00 0.00 0.00 0.00 0.00 0.00 0.00
0.00 0.00 0.00 0.00 0.00 0.00 0.00 0.00 0.00 0.00 0.00 0.00 0.00 0.00 0.00 0.00 0.00 0.00 0.00 0.00 0.00 0.00 0.00 0.00 0.00 0.01 0.03 0.00 0.00 0.00 0.00 0.00 0.00 0.00 0.00 0.00 0.00 0.00 0.00 0.00 0.00 0.00 0.00 0.00 0.00 0.00 0.00
0.00 0.00 0.00 0.00 0.00 0.00 0.00 0.00 0.00 0.00 0.00 0.00 0.00 0.00 0.00 0.00 0.00 0.00 0.00 0.00 0.00 0.00 0.00 0.00 0.00 0.03 0.03 0.00 0.00 0.00 0.00 0.00 0.00 0.00 0.00 0.00 0.00 0.00 0.00 0.00 0.00 0.00 0.00 0.00 0.00 0.00 0.00
0.00 0.00 0.00 0.00 0.00 0.00 0.00 0.00 0.00 0.00 0.00 0.00 0.00 0.00 0.00 0.00 0.00 0.00 0.00 0.00 0.00 0.00 0.00 0.00 0.01 0.02 0.01 0.00 0.00 0.00 0.00 0.00 0.00 0.00 0.00 0.00 0.00 0.00 0.00 0.00 0.00 0.00 0.00 0.00 0.00 0.00 0.00
0.01 0.00 0.00 0.00 0.00 0.00 0.00 0.00 0.00 0.00 0.00 0.00 0.00 0.00 0.00 0.00 0.00 0.00 0.00 0.00 0.00 0.00 0.00 0.01 0.02 0.04 0.00 0.00 0.00 0.00 0.00 0.00 0.00 0.00 0.00 0.00 0.00 0.00 0.00 0.00 0.00 0.00 0.00 0.00 0.00 0.00 0.00
0.08 0.04 0.03 0.02 0.02 0.00 0.00 0.00 0.00 0.00 0.00 0.00 0.00 0.00 0.00 0.00 0.00 0.00 0.00 0.00 0.00 0.01 0.02 0.01 0.01 0.00 0.00 0.00 0.00 0.00 0.00 0.00 0.00 0.00 0.00 0.00 0.00 0.00 0.00 0.00 0.00 0.00 0.00 0.00 0.00 0.00 0.00
0.12 0.08 0.05 0.03 0.02 0.02 0.01 0.02 0.01 0.00 0.00 0.00 0.00 0.00 0.00 0.00 0.00 0.00 0.01 0.00 0.00 0.00 0.01 0.00 0.00 0.00 0.00 0.00 0.00 0.00 0.00 0.00 0.00 0.00 0.00 0.00 0.00 0.00 0.00 0.00 0.00 0.00 0.00 0.00 0.00 0.00 0.00
0.07 0.05 0.04 0.03 0.02 0.03 0.03 0.04 0.05 0.03 0.01 0.00 0.00 0.00 0.00 0.00 0.00 0.00 0.01 0.00 0.00 0.00 0.01 0.00 0.00 0.00 0.00 0.00 0.00 0.00 0.00 0.00 0.00 0.00 0.00 0.00 0.00 0.00 0.00 0.00 0.00 0.00 0.00 0.00 0.00 0.00 0.00
0.03 0.02 0.01 0.02 0.03 0.03 0.02 0.02 0.03 0.02 0.03 0.03 0.03 0.01 0.00 0.00 0.00 0.00 0.00 0.00 0.02 0.02 0.00 0.00 0.00 0.00 0.00 0.00 0.00 0.00 0.00 0.00 0.00 0.00 0.01 0.00 0.00 0.00 0.00 0.00 0.00 0.00 0.00 0.01 0.00 0.01 0.00
0.04 0.04 0.02 0.01 0.01 0.02 0.02 0.03 0.03 0.02 0.02 0.03 0.03 0.05 0.02 0.00 0.02 0.02 0.01 0.01 0.06 0.05 0.00 0.00 0.00 0.00 0.00 0.00 0.00 0.00 0.00 0.00 0.00 0.00 0.02 0.01 0.00 0.00 0.00 0.00 0.01 0.00 0.00 0.01 0.03 0.04 0.04
0.05 0.04 0.03 0.03 0.04 0.03 0.02 0.02 0.02 0.01 0.00 0.01 0.02 0.03 0.05 0.03 0.02 0.00 0.02 0.15 0.27 0.11 0.01 0.00 0.00 0.00 0.00 0.00 0.00 0.00 0.00 0.00 0.00 0.00 0.00 0.00 0.00 0.00 0.00 0.00 0.00 0.00 0.02 0.06 0.10 0.11 0.19
0.04 0.03 0.02 0.02 0.02 0.02 0.02 0.02 0.03 0.01 0.01 0.00 0.01 0.03 0.04 0.06 0.04 0.03 0.10 0.34 0.31 0.17 0.00 0.00 0.00 0.00 0.00 0.00 0.00 0.00 0.01 0.00 0.00 0.00 0.01 0.00 0.00 0.00 0.00 0.01 0.00 0.00 0.05 0.16 0.12 0.07 0.09
0.06 0.02 0.01 0.01 0.02 0.04 0.05 0.04 0.03 0.02 0.01 0.00 0.00 0.01 0.04 0.04 0.05 0.15 0.33 0.49 0.55 0.02 0.00 0.00 0.00 0.00 0.00 0.00 0.00 0.00 0.03 0.03 0.01 0.02 0.04 0.03 0.01 0.00 0.00 0.00 0.01 0.00 0.06 0.13 0.09 0.03 0.01
0.14 0.07 0.02 0.00 0.01 0.04 0.09 0.15 0.15 0.11 0.05 0.02 0.01 0.01 0.04 0.02 0.07 0.24 0.49 0.87 0.42 0.00 0.00 0.01 0.02 0.00 0.00 0.00 0.00 0.02 0.03 0.03 0.04 0.06 0.16 0.10 0.02 0.00 0.01 0.00 0.03 0.05 0.14 0.05 0.26 0.19 0.14
0.08 0.07 0.05 0.03 0.02 0.03 0.05 0.12 0.19 0.26 0.20 0.12 0.03 0.04 0.01 0.01 0.19 0.40 0.62 0.94 0.20 0.00 0.00 0.03 0.11 0.01 0.00 0.00 0.01 0.02 0.02 0.01 0.03 0.06 0.22 0.34 0.32 0.04 0.03 0.05 0.04 0.04 0.04 0.21 0.59 0.52 0.26
0.02 0.02 0.03 0.04 0.04 0.06 0.07 0.07 0.11 0.16 0.16 0.26 0.30 0.27 0.03 0.03 0.30 0.44 0.87 0.33 0.06 0.01 0.03 0.12 0.06 0.08 0.03 0.01 0.00 0.00 0.01 0.01 0.05 0.05 0.13 0.31 0.43 0.23 0.09 0.09 0.09 0.14 0.24 0.41 0.46 0.39 0.23
0.01 0.00 0.01 0.02 0.04 0.06 0.10 0.13 0.12 0.11 0.14 0.29 0.37 0.36 0.07 0.12 0.25 0.48 0.29 0.08 0.02 0.01 0.07 0.16 0.12 0.03 0.03 0.05 0.05 0.03 0.01 0.08 0.05 0.02 0.05 0.17 0.41 0.28 0.13 0.07 0.10 0.20 0.39 0.72 1.12 0.80 0.49
0.03 0.03 0.01 0.00 0.01 0.03 0.06 0.12 0.21 0.27 0.17 0.20 0.31 0.16 0.09 0.25 0.36 0.18 0.07 0.04 0.07 0.04 0.05 0.33 0.24 0.15 0.09 0.05 0.10 0.05 0.05 0.14 0.07 0.07 0.11 0.09 0.19 0.18 0.04 0.06 0.13 0.20 0.24 0.51 0.90 1.05 1.17
0.03 0.03 0.02 0.02 0.01 0.00 0.03 0.09 0.17 0.30 0.54 0.45 0.33 0.28 0.18 0.22 0.31 0.27 0.16 0.09 0.08 0.05 0.08 0.15 0.30 0.13 0.14 0.13 0.11 0.18 0.07 0.10 0.15 0.10 0.07 0.09 0.09 0.16 0.18 0.12 0.19 0.23 0.15 0.33 0.66 0.72 0.54
0.02 0.02 0.04 0.05 0.04 0.02 0.01 0.06 0.17 0.27 0.49 0.73 0.46 0.19 0.08 0.10 0.04 0.08 0.21 0.28 0.19 0.12 0.16 0.18 0.15 0.05 0.09 0.18 0.12 0.12 0.08 0.11 0.14 0.17 0.16 0.19 0.10 0.07 0.03 0.03 0.10 0.19 0.14 0.14 0.23 0.21 0.31
0.03 0.02 0.02 0.02 0.03 0.04 0.03 0.04 0.12 0.20 0.51 0.77 0.34 0.12 0.05 0.06 0.01 0.04 0.07 0.11 0.09 0.13 0.31 0.26 0.28 0.15 0.13 0.17 0.18 0.10 0.13 0.14 0.13 0.15 0.24 0.43 0.35 0.14 0.05 0.01 0.02 0.05 0.04 0.03 0.06 0.06 0.07
0.07 0.05 0.03 0.03 0.02 0.03 0.03 0.03 0.08 0.17 0.41 0.60 0.17 0.04 0.08 0.07 0.03 0.07 0.09 0.06 0.03 0.03 0.12 0.09 0.14 0.09 0.06 0.18 0.10 0.02 0.00 0.01 0.02 0.03 0.07 0.29 0.29 0.25 0.11 0.04 0.08 0.06 0.00 0.00 0.00 0.00 0.02
0.10 0.10 0.07 0.05 0.03 0.03 0.03 0.03 0.06 0.13 0.08 0.05 0.01 0.06 0.14 0.12 0.05 0.05 0.04 0.03 0.02 0.02 0.03 0.02 0.04 0.05 0.02 0.03 0.00 0.00 0.00 0.00 0.00 0.00 0.01 0.05 0.08 0.20 0.14 0.06 0.17 0.04 0.02 0.04 0.04 0.03 0.01
0.08 0.10 0.13 0.10 0.07 0.05 0.03 0.03 0.05 0.08 0.07 0.08 0.06 0.09 0.17 0.11 0.08 0.06 0.04 0.01 0.01 0.00 0.00 0.00 0.00 0.00 0.00 0.00 0.03 0.05 0.02 0.03 0.00 0.00 0.00 0.01 0.04 0.12 0.12 0.10 0.09 0.00 0.00 0.01 0.03 0.02 0.01
0.07 0.07 0.10 0.15 0.11 0.07 0.05 0.03 0.06 0.07 0.06 0.09 0.10 0.10 0.14 0.15 0.04 0.06 0.05 0.03 0.02 0.02 0.01 0.00 0.00 0.00 0.00 0.00 0.06 0.11 0.08 0.07 0.07 0.04 0.01 0.01 0.05 0.14 0.10 0.10 0.05 0.00 0.00 0.00 0.02 0.01 0.00
0.08 0.08 0.08 0.10 0.16 0.12 0.08 0.05 0.05 0.07 0.05 0.10 0.09 0.10 0.17 0.15 0.01 0.01 0.03 0.03 0.02 0.02 0.02 0.01 0.02 0.02 0.04 0.04 0.05 0.06 0.06 0.04 0.04 0.04 0.10 0.20 0.53 0.48 0.23 0.17 0.03 0.00 0.00 0.00 0.08 0.03 0.01
0.11 0.09 0.09 0.08 0.13 0.19 0.13 0.10 0.07 0.05 0.06 0.10 0.10 0.07 0.14 0.16 0.01 0.00 0.00 0.00 0.00 0.01 0.05 0.09 0.09 0.08 0.13 0.16 0.06 0.05 0.07 0.07 0.06 0.02 0.05 0.10 0.26 0.35 0.31 0.37 0.15 0.05 0.11 0.12 0.05 0.00 0.01
0.10 0.10 0.11 0.09 0.08 0.18 0.19 0.13 0.10 0.06 0.07 0.09 0.12 0.05 0.09 0.15 0.05 0.00 0.00 0.00 0.00 0.00 0.02 0.05 0.11 0.12 0.15 0.20 0.24 0.28 0.27 0.19 0.11 0.07 0.05 0.08 0.18 0.25 0.32 0.23 0.06 0.02 0.07 0.17 0.09 0.08 0.11